[[{"header":{"parameterUnit":"m.s-1","parameterCategory":1,"la1":30.2991,"la2":30.254,"lo1":-89.0895,"lo2":-89.0444,"dy":0.0017,"dx":0.0017,"nx":28,"ny":28,"refTime":"2023-08-08T21:00:00:Z","depth":0,"parameterNumber":2,"parameterNumberName":"U-component_of_WINDS"},"data":[0,0,0,0,0,0,0,0,0,0,0,0,0,0,0,0,0,0,0,0,0,0,0,0,0,0,0,0,0,0,0,0,0,0,0,0,0,0,0,0,0,0,0,0,0,0,0,0,0,0,0,0,0,0,0,0,0,0,4.8548,4.8549,0,4.8712,4.8714,4.8716,4.8661,4.8657,4.8654,4.865,4.8819,4.8827,4.8834,0,0,0,0,0,0,0,0,0,0,0,0,0,4.8185,4.8192,4.8548,4.855,4.8552,4.8712,4.8714,4.8716,4.8662,4.8657,4.8653,4.8649,4.8816,4.8826,4.8835,0,0,0,0,0,0,0,0,0,0,0,0,0,4.8345,4.8194,4.8547,4.8544,4.8545,4.8711,4.8714,4.8717,4.8662,4.8657,4.8652,4.8647,4.8813,4.8825,4.8836,4.9016,0,0,4.8872,4.8877,0,0,0,0,0,0,0,0,4.8336,4.8359,4.8542,4.8544,4.8546,4.866,4.8648,4.8817,4.8664,4.8618,4.865,4.8644,4.8771,4.8785,4.8828,4.9024,4.9031,4.8873,4.888,4.8885,4.8889,0,0,0,0,0,0,0,4.8325,4.8351,4.8613,4.8545,4.8547,4.8533,4.855,4.868,4.8722,4.8621,4.8618,4.8638,4.8771,4.8817,4.8832,4.9034,4.8873,4.8883,4.889,4.8895,4.9382,4.9387,0,0,0,0,0,0,4.8313,4.8342,4.8607,4.8617,4.8426,4.8544,4.8563,4.8629,4.8721,4.873,4.8642,4.8635,4.8799,4.8818,4.8837,4.9051,4.8885,4.8896,4.8903,4.9376,4.9383,4.9389,0,0,0,0,0,0,4.8306,4.8337,4.8601,4.8479,4.8512,4.8556,4.8631,4.8635,4.8681,4.8737,4.8744,4.8682,4.8796,4.8821,4.8971,4.9056,4.8901,4.8912,4.9369,4.9378,4.9386,4.9482,0,0,0,0,0,0,4.8295,4.8335,4.8404,4.8481,4.8518,4.8733,4.8636,4.8642,4.8702,4.8693,4.8776,4.8784,4.8794,4.8954,4.8983,4.907,4.8921,4.9361,4.9373,4.9383,4.9471,4.9493,4.9511,0,0,0,0,0,4.8283,4.8425,4.8408,4.844,4.8606,4.8738,4.8759,4.8767,4.8709,4.8778,4.8813,4.8781,4.9043,4.897,4.9002,4.9094,4.9356,4.937,4.9383,4.9462,4.9489,4.9511,0,0,0,0,0,0,4.8358,4.8435,4.8417,4.8589,4.8657,4.8728,4.8816,4.8795,4.8881,4.887,4.8876,4.8895,4.9049,4.9087,4.9004,4.9271,4.9191,4.9211,4.924,4.9266,4.9285,4.9272,4.8931,0,0,0,0,0,4.8394,4.8495,4.8557,4.8703,4.8738,4.8771,4.8829,4.8829,4.89,4.8929,4.8975,4.9045,4.9142,4.9206,4.93,4.9477,4.9493,4.9556,4.9576,4.9592,4.9609,4.9702,4.973,4.9433,4.9433,4.9433,0,0,4.847,4.8525,4.8589,4.8719,4.8772,4.8875,4.8796,4.8909,4.8986,4.8946,4.909,4.9126,4.9205,4.9369,4.9443,4.9405,4.9694,4.9609,4.9621,4.9629,4.9719,4.9747,4.9772,4.9442,4.944,4.9439,0,0,4.8662,4.8715,4.884,4.8894,4.8975,4.8996,4.9026,4.9101,4.9123,4.9268,4.9239,4.933,4.9499,4.9555,4.9606,4.9817,4.9789,4.9847,4.9951,5.0042,5.0066,5.0086,5.0159,5.0185,4.9864,4.9864,4.9864,0,4.8746,4.8901,4.8907,4.9023,4.908,4.9048,4.9174,4.9227,4.9334,4.9374,4.933,4.9539,4.959,4.9765,4.9816,4.9859,4.9892,4.9837,5.0062,5.0083,5.0102,5.0171,5.0199,4.987,4.987,4.9869,4.9869,0,4.9,4.9108,4.92,4.9302,4.937,4.9491,4.9514,4.9582,4.9576,4.9602,4.9748,4.9808,4.9911,4.9953,4.9949,5.0127,5.01,5.0059,4.9978,5.0136,5.0201,5.0228,4.9879,4.9877,4.9875,4.9874,0,0,4.9243,4.9347,4.938,4.9425,4.9511,4.9595,4.9713,4.9813,4.987,4.9945,5.0043,5.0186,5.0147,5.0205,5.0207,5.0287,5.0447,5.0236,5.0238,5.027,5.0644,5.0672,5.0703,5.043,5.0436,5.044,5.0636,0,4.9439,4.9647,4.9655,4.9843,4.9941,4.9912,5.0015,5.0078,5.0105,5.0192,5.0221,5.0321,5.0264,5.0298,5.0377,5.0411,5.0522,5.0397,5.052,5.0524,5.0498,5.0738,5.0769,5.0952,5.0662,5.0666,5.067,0,4.9696,4.9778,4.9976,5.0045,5.0087,5.0179,5.027,5.0354,5.0425,5.0439,5.0502,5.0492,5.0611,5.0528,5.0692,5.0607,5.0658,5.0682,5.0689,5.0699,5.0605,5.0751,5.101,5.1037,5.071,5.0707,5.0704,0,4.985,5.001,5.0148,5.0188,5.0274,5.0338,5.0377,5.0443,5.0502,5.0582,5.062,5.0713,5.0764,5.0836,5.0851,5.0789,5.1014,5.0932,5.1027,5.1026,5.1074,5.107,5.1341,5.1111,5.111,5.111,5.1109,0,5.0067,5.0189,5.0218,5.0303,5.0437,5.0445,5.0579,5.0612,5.0671,5.0761,5.0742,5.0827,5.0843,5.0931,5.0943,5.1075,5.1099,5.1112,5.1114,5.1113,5.111,5.1144,5.1131,5.1117,5.1116,5.1114,5.1113,0,5.0261,5.0286,5.0434,5.0502,5.0522,5.0618,5.0676,5.0757,5.0781,5.0895,5.0923,5.0961,5.1063,5.1085,5.1208,5.1216,5.1372,5.1362,5.1347,5.1346,5.1438,5.1427,5.1738,5.1778,5.1524,5.1526,5.1528,0,5.0397,5.0489,5.0567,5.0626,5.0667,5.0762,5.0822,5.0833,5.0896,5.0982,5.1052,5.1153,5.1233,5.1398,5.1436,5.1529,5.152,5.1622,5.1533,5.1528,5.1518,5.1511,5.1519,5.1638,5.1641,5.1643,5.1645,0,5.0634,5.0641,5.0727,5.0818,5.089,5.0962,5.1031,5.108,5.11,5.1172,5.1276,5.1338,5.1462,5.1561,5.1653,5.1692,5.1672,5.1673,5.1699,5.1698,5.1684,5.169,5.1391,5.1665,5.1663,5.1662,5.1661,5.166,5.0801,5.0881,5.0947,5.1044,5.1096,5.116,5.1238,5.1272,5.1359,5.146,5.1461,5.1574,5.1641,5.1763,5.1807,5.1895,5.1863,5.1902,5.1911,5.192,5.1926,5.1672,5.1912,5.1912,5.1911,5.1911,5.191,0,5.1035,5.1075,5.1164,5.126,5.1335,5.131,5.1384,5.1449,5.1548,5.1612,5.1691,5.1809,5.1905,5.195,5.2044,5.2105,5.2098,5.213,5.2124,5.2132,5.1951,5.1918,5.2133,5.2133,5.2133,5.2133,5.2133,5.2133,5.1165,5.1297,5.1312,5.147,5.151,5.162,5.1664,5.1723,5.1773,5.1906,5.1985,5.2013,5.2069,5.2167,5.2253,5.2263,5.2298,5.2333,5.2339,5.2168,5.2146,5.2124,5.2092,5.2341,5.2341,5.2512,5.2514,5.2515]},{"header":{"parameterUnit":"m.s-1","parameterCategory":1,"la1":30.2991,"la2":30.254,"lo1":-89.0895,"lo2":-89.0444,"dy":0.0017,"dx":0.0017,"nx":28,"ny":28,"refTime":"2023-08-08T21:00:00:Z","depth":0,"parameterNumber":3,"parameterNumberName":"V-component_of_WINDS"},"data":[0,0,0,0,0,0,0,0,0,0,0,0,0,0,0,0,0,0,0,0,0,0,0,0,0,0,0,0,0,0,0,0,0,0,0,0,0,0,0,0,0,0,0,0,0,0,0,0,0,0,0,0,0,0,0,0,0,0,1.1069,1.1069,0,1.1138,1.1139,1.114,1.1122,1.1121,1.1119,1.1118,1.1192,1.1195,1.1198,0,0,0,0,0,0,0,0,0,0,0,0,0,1.0922,1.0924,1.1068,1.1069,1.107,1.1138,1.1139,1.114,1.1122,1.1121,1.1119,1.1117,1.1191,1.1195,1.1198,0,0,0,0,0,0,0,0,0,0,0,0,0,1.0988,1.0925,1.1068,1.107,1.107,1.1138,1.1139,1.114,1.1123,1.1121,1.1119,1.1117,1.1189,1.1194,1.1199,1.127,0,0,1.1214,1.1216,0,0,0,0,0,0,0,0,1.0984,1.0993,1.1069,1.107,1.1071,1.1119,1.1114,1.1184,1.1123,1.1103,1.1118,1.1116,1.117,1.1176,1.1194,1.1274,1.1277,1.1214,1.1217,1.1219,1.1221,0,0,0,0,0,0,0,1.098,1.099,1.1096,1.107,1.1071,1.1067,1.1074,1.1127,1.1147,1.1105,1.1103,1.1112,1.117,1.1189,1.1195,1.1278,1.1214,1.1219,1.1222,1.1223,1.142,1.1422,0,0,0,0,0,0,1.0974,1.0986,1.1094,1.1098,1.1021,1.1071,1.1079,1.1106,1.1146,1.1151,1.1113,1.1111,1.1182,1.119,1.1198,1.1284,1.1219,1.1224,1.1227,1.1418,1.142,1.1423,0,0,0,0,0,0,1.0971,1.0984,1.1091,1.1042,1.1055,1.1076,1.1106,1.1108,1.1127,1.1153,1.1157,1.1129,1.118,1.1191,1.1252,1.1286,1.1226,1.1231,1.1415,1.1418,1.1422,1.1457,0,0,0,0,0,0,1.0967,1.0983,1.101,1.1043,1.1058,1.1144,1.1108,1.1111,1.1136,1.1133,1.1169,1.1173,1.1179,1.1245,1.1257,1.1292,1.1234,1.1412,1.1416,1.1421,1.1453,1.1461,1.1468,0,0,0,0,0,1.0961,1.1018,1.1011,1.1024,1.1092,1.1146,1.1155,1.1161,1.1138,1.1166,1.1182,1.1172,1.128,1.1251,1.1265,1.1302,1.141,1.1415,1.142,1.1449,1.1459,1.1468,0,0,0,0,0,0,1.0989,1.1022,1.1015,1.1084,1.1112,1.1143,1.1178,1.1171,1.1207,1.1203,1.1209,1.1217,1.128,1.1297,1.1264,1.1372,1.1342,1.135,1.1359,1.1369,1.1377,1.1372,1.1238,0,0,0,0,0,1.1003,1.1043,1.107,1.1128,1.1142,1.1158,1.1181,1.1183,1.1213,1.1225,1.1246,1.1276,1.1317,1.1344,1.1383,1.1455,1.1462,1.1486,1.1494,1.15,1.1508,1.1547,1.1558,1.144,1.144,1.144,0,0,1.1033,1.1055,1.1081,1.1134,1.1156,1.1198,1.1168,1.1214,1.1246,1.1233,1.1292,1.1308,1.1342,1.1408,1.1439,1.1424,1.1542,1.1507,1.1512,1.1516,1.1553,1.1564,1.1574,1.1443,1.1443,1.1442,0,0,1.1108,1.1129,1.1179,1.1202,1.1235,1.1245,1.1257,1.1289,1.1299,1.1358,1.1349,1.1386,1.1456,1.1481,1.1503,1.1586,1.1578,1.1598,1.1639,1.1677,1.1686,1.1694,1.1724,1.1735,1.1605,1.1605,1.1605,0,1.1141,1.1203,1.1206,1.1253,1.1277,1.1265,1.1316,1.1338,1.1383,1.14,1.1383,1.147,1.1492,1.1564,1.1584,1.1602,1.1616,1.1595,1.1684,1.1693,1.1701,1.1729,1.174,1.1607,1.1607,1.1607,1.1607,0,1.1242,1.1285,1.1322,1.1364,1.1392,1.1441,1.1452,1.1479,1.1478,1.149,1.155,1.1575,1.1619,1.1636,1.1636,1.1708,1.1698,1.1683,1.1652,1.1714,1.1741,1.1752,1.1611,1.161,1.1609,1.1609,0,0,1.1338,1.1381,1.1394,1.1413,1.1449,1.1483,1.153,1.1572,1.1596,1.1627,1.1668,1.1726,1.1712,1.1736,1.1739,1.1772,1.1836,1.1752,1.1753,1.1767,1.1918,1.193,1.1942,1.183,1.1832,1.1834,1.1915,0,1.1417,1.1501,1.1505,1.1581,1.1621,1.161,1.1652,1.1679,1.169,1.1727,1.174,1.1781,1.1759,1.1773,1.1806,1.1821,1.1866,1.1815,1.1869,1.1871,1.1862,1.1957,1.197,1.2045,1.1925,1.1927,1.1929,0,1.1521,1.1554,1.1634,1.1663,1.168,1.1718,1.1756,1.179,1.182,1.1826,1.1853,1.185,1.1899,1.1866,1.1934,1.1899,1.1921,1.1932,1.1935,1.1941,1.1904,1.1966,1.2069,1.2081,1.1945,1.1944,1.1943,0,1.1584,1.1648,1.1705,1.1721,1.1756,1.1783,1.1799,1.1826,1.1851,1.1884,1.19,1.1939,1.1961,1.1991,1.1999,1.1974,1.2068,1.2035,1.2075,1.2075,1.2096,1.2095,1.2205,1.2108,1.2108,1.2108,1.2108,0,1.1672,1.1722,1.1733,1.1768,1.1823,1.1826,1.1881,1.1895,1.192,1.1957,1.195,1.1986,1.1993,1.2031,1.2037,1.2093,1.2102,1.2109,1.211,1.211,1.2109,1.2126,1.2121,1.2111,1.211,1.211,1.2109,0,1.1752,1.1762,1.1822,1.185,1.1858,1.1898,1.1922,1.1955,1.1965,1.2013,1.2024,1.2041,1.2084,1.2094,1.2146,1.215,1.2216,1.2212,1.2206,1.2206,1.2245,1.2242,1.237,1.2388,1.2279,1.228,1.2281,0,1.1808,1.1846,1.1877,1.1902,1.1918,1.1958,1.1982,1.1987,1.2013,1.2049,1.2078,1.212,1.2154,1.2224,1.2241,1.228,1.2278,1.232,1.2284,1.2282,1.2279,1.2277,1.2281,1.2327,1.2328,1.2329,1.233,0,1.1907,1.191,1.1945,1.1982,1.2012,1.2041,1.2069,1.209,1.2098,1.2128,1.2171,1.2198,1.225,1.2292,1.2331,1.2348,1.2341,1.2341,1.2352,1.2353,1.2348,1.2352,1.2226,1.2338,1.2338,1.2337,1.2337,1.2336,1.1978,1.201,1.2037,1.2077,1.2098,1.2125,1.2157,1.2171,1.2207,1.2249,1.2249,1.2297,1.2325,1.2377,1.2396,1.2434,1.2421,1.2437,1.2442,1.2446,1.2449,1.2341,1.2441,1.2441,1.244,1.244,1.244,0,1.2076,1.2093,1.2129,1.2168,1.2199,1.2188,1.2218,1.2246,1.2287,1.2314,1.2347,1.2397,1.2437,1.2456,1.2497,1.2523,1.2521,1.2533,1.2532,1.2536,1.2459,1.2445,1.2535,1.2535,1.2535,1.2535,1.2535,1.2534,1.2132,1.2187,1.2192,1.2258,1.2274,1.232,1.2338,1.2362,1.2383,1.2439,1.2472,1.2484,1.2508,1.2549,1.2586,1.259,1.2606,1.2621,1.2624,1.2551,1.2542,1.2532,1.252,1.2624,1.2624,1.2698,1.2699,1.2699]}]]